Orbital Elements at Epoch 2459000.5 (2020-May-31.0) TDB
Reference: JPL 17 (heliocentric ecliptic J2000)
Element | Value | Uncertainty (1-sigma) | Units |
e | .2350900413941697 | 3.784e-08 | |
a | 2.298541576309544 | 8.7199e-09 | au |
q | 1.758177341988713 | 8.9393e-08 | au |
i | 1.712838627798711 | 4.1344e-06 | deg |
node | 20.7751637052453 | 0.0001374 | deg |
peri | 6.627276190484249 | 0.00013774 | deg |
M | 298.7874130741455 | 1.014e-05 | deg |
tp | 2459216.928876728846 (2021-Jan-02.42887673) | 3.5918e-05 | TDB |
period | 1272.849254300597 3.48 | 7.2431e-06 1.983e-08 | d yr |
n | .2828300356728513 | 1.6094e-09 | deg/d |
Q | 2.838905810630374 | 1.077e-08 | au |
|
| | Orbit Determination Parameters
Additional Information
|